Regional Weather Roundup
Issued by NWS Albany, NY

Home | Current Version | Previous Version | Graphics & Text | Print | Product List | Glossary Off
Versions: 1 2 3 4 5 6 7 8 9 10 11 12 13 14 15 16 17 18 19 20 21 22 23 24 25 26 27 28 29 30 31 32 33 34 35 36 37 38 39 40 41 42 43 44 45 46 47 48 49

000
ASUS41 KALY 031910
RWRALY

NEW YORK STATE HOURLY WEATHER ROUNDUP
NATIONAL WEATHER SERVICE ALBANY NY
300 PM EDT THU SEP 03 2015

NOTE: "FAIR" INDICATES FEW OR NO CLOUDS BELOW 12,000 FEET WITH NO
SIGNIFICANT WEATHER AND/OR NO OBSTRUCTIONS TO VISIBILITY.

NYZ032-033-038>043-046>054-057>066-NYZ062>081-032000-
EAST


CITY           SKY/WX    TMP DP  RH WIND       PRES   REMARKS
ALBANY         PTSUNNY   89  68  49 VRB5      29.86S HX  93
GLENS FALLS    PTSUNNY   85  67  54 NE3       29.86S
POUGHKEEPSIE   SUNNY     91  65  41 N9        29.84F HX  93
NEWBURGH       MOSUNNY   88  70  55 VRB6      29.87F HX  92
MONTGOMERY     SUNNY     91  68  46 VRB7      29.85F HX  95
WHITE PLAINS   SUNNY     90  58  33 NW7       29.85F
ISLIP          MOSUNNY   87  69  54 S9        29.82F HX  91
NEW YORK CITY  PTSUNNY   90  64  42 CALM      29.83F HX  91
CENTRAL PARK   SUNNY     92  61  35 VRB6      29.87F HX  92
$$

NYZ005>009-017-018-044>046-055-056-032000-
CENTRAL


CITY           SKY/WX    TMP DP  RH WIND       PRES   REMARKS
FULTON         MOSUNNY   83  71  67 NW12      29.93S
SYRACUSE       PTSUNNY   86  71  60 NW10      29.91S HX  91
ROME           MOSUNNY   81  70  69 NW6       29.92F
ELMIRA         MOSUNNY   87  68  52 NE8       29.92S HX  90
BINGHAMTON     PTSUNNY   80  68  66 N6        29.95F
MONTICELLO     MOSUNNY   84  66  54 N7G16     29.93F
$$

NYZ026>034-041>043-032000-
NORTH


CITY           SKY/WX    TMP DP  RH WIND       PRES   REMARKS
WATERTOWN      MOSUNNY   84  69  60 NE10      29.92F HAZE
FORT DRUM      NOT AVBL
MASSENA        MOSUNNY   82  66  58 NE5       29.93F
SARANAC LAKE   PTSUNNY   80  60  50 NE10      29.95S
PLATTSBURGH    MOSUNNY   79  68  69 NE13      29.91F
$$

NYZ001>004-010>016-019>021-032000-
WEST


CITY           SKY/WX    TMP DP  RH WIND       PRES   REMARKS
NIAGARA FALLS  PTSUNNY   84  71  65 N5        29.92F
BUFFALO        MOSUNNY   86  68  54 CALM      29.93F
DUNKIRK        MOSUNNY   79  72  79 NW5       29.94
JAMESTOWN      MOSUNNY   81  64  57 NW5       29.99F
WELLSVILLE     MOSUNNY   84  63  49 VRB7      30.01F
ROCHESTER      PTSUNNY   84  71  65 N14G21    29.94S
PENN YAN       PTSUNNY   85  67  54 VRB5      29.95S
$$

             KEY
       WCI = WIND CHILL INDEX
       VSB = VISIBILITY
       HX  = HEAT INDEX
$$



USA.gov is the U.S. government's official web portal to all federal, state and local government web resources and services.